Thornfield, Missouri
Current Conditions -  °F | °C
As of 5:53 AM on Saturday 25 Oct 2014 (Local Time) from KBPK Reporting Station
Clear Clear  
Wind Chill: 60°   Ceiling: Unl
Heat Index: 60°   Visibility: 7mi
Dew Point: 58°   Wind: 3mph
Humidity: 93%   Direction: 240°WSW
Pressure: 30.07"   Gusts: NA
Location:  36.71°N, 92.66°W
Report Text: KBPK 251053Z AUTO 24003KT 7SM CLR 16/14 A3007 RMK AO2 SLP177 T01560144
Loading
Personal Weather Stations






























Interactive Weather Map
Tropical Storm Tracking
New forecast layout! Learn more

10-Day Weather Forecast

Advertisements
Track Severe Weather on mobile